Location: Il Ritiro
(43.4167°N, 13.1333°E)
Time: 08:07:36
(UTC+00:00)

Cosmos 1680 Rocket - Pass Details

Date: 05 July 2020
Orbit: 760 x 781 km, 74.1° (Epoch: 05 August)

Event Time Altitude Azimuth Distance (km) Brightness Sun altitude
Exits shadow 21:35:41 41° 171° (S) 1,117 3.8 -20.3°
Maximum altitude 21:37:24 65° 106° (ESE) 857 3.5 -20.4°
Drops below altitude 10° 21:42:41 10° 26° (NNE) 2,344 6.6 -20.8°
Sets 21:45:05 0° 24° (NNE) 3,276 7.4 -20.9°
